Other Public Products
Issued by NWS Grand Forks, ND

Home | Current Version | Previous Version | Graphics & Text | Print | Product List | Glossary On
Versions: 1 2 3 4 5 6 7 8 9 10 11 12 13 14 15 16 17 18 19 20 21 22 23 24 25 26 27 28 29 30 31 32 33 34 35 36 37 38 39 40 41 42 43 44 45 46 47 48 49 50
000
FPUS83 KFGF 071210
OPUFGF
PRAIRIE TO PINES WEATHER ROUNDUP
NATIONAL WEATHER SERVICE EASTERN NORTH DAKOTA/GRAND FORKS ND
600 AM CST WED DEC 07 2016

 **SATELLITE DATA USED TO AUGMENT SKY COVER AT AUTOMATED STATIONS**
 *****  WEATHER ACROSS EASTERN NORTH DAKOTA  *****

CITY           SKY/WX    TMP DP  RH WIND       PRES   REMARKS
GRAND FORKS    LGT SNOW  15  10  80 NW24G35   29.86R BLWGSNOWWCI  -4
6HR MIN TEMP:  15; 6HR MAX TEMP:  17; 6HR PCP:  0.03;

GRAND FORKS AF LGT SNOW  14   9  79 NW23G29   29.88R WCI  -5
GRAND CITY NWS   N/A     14 N/A N/A NW22        N/A  WCI  -4
BUXTON         NOT AVBL
DEVILS LAKE    LGT SNOW   9   5  84 NW31G38   29.92R FOG     WCI -14
6HR MIN TEMP:   8; 6HR MAX TEMP:   9; 6HR PCP: TRACE;

FARGO          MOCLDY    13   6  74 W24G33    29.94R WCI  -7
6HR MIN TEMP:  12; 6HR MAX TEMP:  15; 6HR PCP: TRACE;

WAHPETON ARPT  CLOUDY    12   7  79 W22G28    29.99R WCI  -7
$$

 *****  WEATHER ACROSS CENTRAL AND WESTERN NORTH DAKOTA  *****

CITY           SKY/WX    TMP DP  RH WIND       PRES   REMARKS
JAMESTOWN      MIX PCPN   8   3  80 NW28G38   29.99R WCI -14
6HR MIN TEMP:   7; 6HR MAX TEMP:   9; 6HR PCP: TRACE;

BISMARCK       CLOUDY     6   1  80 NW17G32   30.16R WCI -13
6HR MIN TEMP:   4; 6HR MAX TEMP:   6; 6HR PCP:  0.01;

MINOT          LGT SNOW   5   0  79 W35G45    30.09R WCI -20
6HR MIN TEMP:   4; 6HR MAX TEMP:   7; 6HR PCP: TRACE;

MINOT AFB      LGT SNOW   3  -1  83 NW36G43   30.08R VSB 3/4 WCI -24
6HR MIN TEMP:   3; 6HR MAX TEMP:   6; 6HR PCP: TRACE;

GARRISON         N/A      4  -1  80 NW36G46   30.12R WCI -22
6HR MIN TEMP:   4; 6HR MAX TEMP:   5;

WILLISTON      MOCLDY    -1  -8  72 W13       30.30R WCI -19
6HR MIN TEMP:  -1; 6HR MAX TEMP:   4; 6HR PCP: TRACE;

DICKINSON      MIX PCPN   2  -4  76 NW24G33   30.17R WCI -21
6HR MIN TEMP:  -1; 6HR MAX TEMP:   2; 6HR PCP: TRACE;

HETTINGER      CLOUDY     2  -4  76 NW26      30.19R WCI -22
6HR MIN TEMP:  -1; 6HR MAX TEMP:   2;

$$

 *****  OTHER OBSERVATIONS NORTHEAST NORTH DAKOTA  *****

CITY           SKY/WX    TMP DP  RH WIND       PRES   REMARKS
WALHALLA       LGT SNOW  14  14 100 NW21G37   29.85R WCI  -4
LANGDON        SNOW      12   9  85 NW33G41   29.83R VSB 1/2 WCI -10
CAVALIER         N/A     16  10  79 NW25G37   29.83R HAZE    WCI  -3
GRAFTON        FAIR      16  12  86 NW29G38   29.86R WCI  -4
CANDO          CLOUDY    10   5  79 NW26G33   29.95R WCI -11
FORT TOTTEN      N/A     10   8  93 NW15      29.95S WCI  -7
ROLLA          LGT SNOW   9   7  92 NW38G47   29.91R VSB 3/4 WCI -16
RUGBY            N/A      7   5  92 NW29G37   30.00R FOG     WCI -16
 ***** THE ABOVE OBSERVATIONS ARE NON NWS ARE NOT QUALITY
        CONTROLLED AND MAY MIS-REPORT RAIN FOR SNOW...
$$

 *****  OTHER OBSERVATIONS SOUTHEAST NORTH DAKOTA *****

CITY           SKY/WX    TMP DP  RH WIND       PRES   REMARKS
COOPERSTOWN    LGT SNOW   9   5  85 W28G36    29.93R WCI -13
VALLEY CITY    LGT SNOW   9   7  92 NW30G43   29.97R WCI -14
OAKES          NOT AVBL
GWINNER        CLOUDY    12   9  85 W23       30.03R WCI  -7
SHEYENNE NWR     N/A     11   3  71 NW15      29.95S WCI  -5
BUFFALO        NOT AVBL
WYNDMERE       NOT AVBL
 ***** THE ABOVE OBSERVATIONS ARE NON NWS ARE NOT QUALITY
       CONTROLLED AND MAY MIS-REPORT RAIN FOR SNOW...
$$

  *****  WEATHER ACROSS NORTHERN MINNESOTA  *****

CITY           SKY/WX    TMP DP  RH WIND       PRES   REMARKS
FLAG ISLAND    LGT SNOW  25  21  86 NW18      29.59R WCI  11
WARROAD        CLOUDY    21  18  86 W10       29.63R WCI  10
ROSEAU         CLOUDY    21  18  86 W18G26    29.66R WCI   6
HALLOCK        LGT SNOW  18  16  93 NW28G35   29.77R WCI  -1
THF RVR FALLS  LGT SNOW  14  11  87 W24G31    29.78R FOG     WCI  -5
6HR MIN TEMP:  14; 6HR MAX TEMP:  17; 6HR PCP: TRACE;

HALSTAD          N/A     14  10  84 NW28        N/A  WCI  -6
FOSSTON        LGT SNOW  12  10  92 W22G28    29.79R WCI  -7
BAUDETTE       CLOUDY    21  17  84 W15G26    29.59R WCI   8
6HR MIN TEMP:  21; 6HR MAX TEMP:  24; 6HR PCP: TRACE;

WASKISH        FLURRIES  19  18  93 W23G32    29.65R WCI   2
CROOKSTON      LGT SNOW  16  12  86 NW28G36   29.84R VSB 1   WCI  -4
$$
  *****  WEATHER ACROSS CENTRAL AND WEST MINNESOTA  *****

CITY           SKY/WX    TMP DP  RH WIND       PRES   REMARKS
BEMIDJI        LGT SNOW  14  10  85 W20G30    29.72R WCI  -3
PARK RAPIDS    LGT SNOW  13   7  77 W20       29.78R WCI  -5
6HR MIN TEMP:  13; 6HR MAX TEMP:  15; 6HR PCP: TRACE;

WADENA         LGT SNOW  10   7  85 W15G21    29.85R WCI  -6
DETROIT LAKES  LGT SNOW  12  10  92 W21G28    29.86R WCI  -6
MOORHEAD       CLOUDY    12   7  79 W24       29.93R WCI  -8
FERGUS FALLS   CLOUDY    10   7  85 W23       30.00R FOG     WCI -10
ELBOW LAKE     LGT SNOW  11   7  84 NW25G35   29.98R WCI -10
MORRIS MN      LGT SNOW  12   7  79 W29G37    29.99R WCI  -9
STAPLES        LGT SNOW  10   7  85 W21G28    29.85R WCI  -9
WHEATON        CLOUDY    14   9  79 W18G26    30.04R WCI  -3
$$
  *****  WEATHER ELSEWHERE ACROSS MINNESOTA  *****

CITY           SKY/WX    TMP DP  RH WIND       PRES   REMARKS
DULUTH         LGT SNOW  15  11  83 W21G30    29.65R FOG     WCI  -2
6HR MIN TEMP:  15; 6HR MAX TEMP:  20; 6HR PCP: TRACE;

INTRNTL FALLS  LGT SNOW  22  19  89 W9G17     29.55R VSB 3/4 WCI  12
6HR MIN TEMP:  19; 6HR MAX TEMP:  24; 6HR PCP:  0.12;

ELY            LGT SNOW  19  18  93 SW12G18   29.55R WCI   7
CLOQUET        FLURRIES  16   9  73 SW17G25   29.70R WCI   0
BRAINERD       CLOUDY    13   8  81 W15G26    29.82R WCI  -3
6HR MIN TEMP:  13; 6HR MAX TEMP:  16; 6HR PCP: TRACE;

HIBBING        LGT SNOW  16  13  88 W9        29.62R FOG     WCI   4
6HR MIN TEMP:  16; 6HR MAX TEMP:  21; 6HR PCP:  0.01;

ALEXANDRIA     LGT SNOW  11   7  84 W23G32    29.93R FOG     WCI  -9
6HR MIN TEMP:  11; 6HR MAX TEMP:  13; 6HR PCP: TRACE;

SAINT CLOUD    FLURRIES  14   8  77 W24G33    29.92R WCI  -5
6HR MIN TEMP:  14; 6HR MAX TEMP:  17; 6HR PCP: TRACE;

MINNEAPOLIS    FLURRIES  17   9  70 W18       29.97R WCI   1
6HR MIN TEMP:  17; 6HR MAX TEMP:  18; 6HR PCP: TRACE;

$$

  *****  WEATHER ACROSS SOUTH DAKOTA  *****

CITY           SKY/WX    TMP DP  RH WIND       PRES   REMARKS
SIOUX FALLS    CLEAR      9   3  77 W20G29    30.15R WCI -10
6HR MIN TEMP:   9; 6HR MAX TEMP:  12;

BROOKINGS      CLEAR      6   1  80 NW24G31   30.07R WCI -16
WATERTOWN      PTCLDY     6   0  76 NW22G30   30.05R WCI -15
6HR MIN TEMP:   6; 6HR MAX TEMP:   8;

HURON          MOCLDY     8   2  76 NW14      30.19R WCI  -8
6HR MIN TEMP:   7; 6HR MAX TEMP:   9;

SISSETON         N/A     12   5  73 NW22G31   30.02R WCI  -7
ABERDEEN       CLOUDY     8   0  69 W22G32    30.13R WCI -12
6HR MIN TEMP:   8; 6HR MAX TEMP:  11;

MITCHELL       CLEAR     10   3  73 W16G24    30.22R WCI  -7
PIERRE         CLOUDY     7   1  76 W22G29    30.21R WCI -14
6HR MIN TEMP:   7; 6HR MAX TEMP:  10;

MOBRIDGE       CLOUDY     7  -3  64 NW25G35   30.16R WCI -15
RAPID CITY     CLOUDY     4  -4  69 N16       30.20R WCI -15
6HR MIN TEMP:   2; 6HR MAX TEMP:   5;

$$

  *****  SOME WEATHER IN NEARBY STATES *****

CITY           SKY/WX    TMP DP  RH WIND       PRES   REMARKS
GLASGOW MT     CLEAR     -1  -9  68 NW28G36   30.38R WCI -26
6HR MIN TEMP:  -1; 6HR MAX TEMP:   3;

GREAT FALLS MT CLOUDY    -3  -8  79 W5        30.39R WCI -13
6HR MIN TEMP:  -3; 6HR MAX TEMP:  -2;

CHEYENNE WY    LGT SNOW   1  -4  79 N13G22    29.97R WCI -17
6HR MIN TEMP:   1; 6HR MAX TEMP:  12; 6HR PCP:  0.05;

SCOTTSBLUFF NE LGT SNOW  10   4  76 N10       30.16R WCI  -4
6HR MIN TEMP:   9; 6HR MAX TEMP:  16; 6HR PCP:  0.03;

OMAHA NE       CLOUDY    17   7  64 NW12      30.23R WCI   4
6HR MIN TEMP:  17; 6HR MAX TEMP:  22;

DES MOINES IA  MOCLDY    20  10  65 NW14      30.17R WCI   7
6HR MIN TEMP:  20; 6HR MAX TEMP:  24;

DAVENPORT IA   CLOUDY    22  16  78 W16       30.11R WCI   8
6HR MIN TEMP:  22; 6HR MAX TEMP:  26;

CHICAGO IL     CLOUDY    25  17  72 W12       30.03S WCI  14
6HR MIN TEMP:  25; 6HR MAX TEMP:  26;

EAU CLAIRE WI  FLURRIES  17  10  74 W18G26    29.91R WCI   1
6HR MIN TEMP:  17; 6HR MAX TEMP:  18; 6HR PCP: TRACE;

LA CROSSE WI   CLOUDY    19  11  70 W12       30.03R WCI   7
6HR MIN TEMP:  19; 6HR MAX TEMP:  23; 6HR PCP: TRACE;

$$

  *****  SOME NATIONAL WEATHER *****

CITY           SKY/WX    TMP DP  RH WIND       PRES   REMARKS
LA GUARDIA NY  CLOUDY    41  37  86 NE12      29.94R
6HR MIN TEMP:  41; 6HR MAX TEMP:  43; 6HR PCP:  0.06;              C1F1C2F2C3F3C4F4C5F5C6F6C7F7C8F8C9F9CaFaCbFbCcFcCdFdCe!



USA.gov is the U.S. government's official web portal to all federal, state and local government web resources and services.